Location: Utrecht
(52.0907°N, 5.1214°E)
Time: 04:59:30
(UTC+02:00)

CAS-4B - Visible Passes

Search period start: 02 July 2022 00:00
Search period end: 12 July 2022 00:00
Orbit: 523 x 536 km, 43.0° (Epoch: 01 July)

Date Brightness Start Highest point End Pass type
(mag) Time Alt. Az. Time Alt. Az. Time Alt. Az.
02 Jul ? 04:34:03 10° SW 04:36:59 19° SSE 04:39:56 10° ESE visible
03 Jul ? 04:21:24 10° SW 04:24:26 20° S 04:27:28 10° ESE visible
04 Jul ? 02:33:54 11° SE 02:33:54 11° SE 02:34:14 10° SE visible
04 Jul ? 04:09:05 11° SW 04:11:52 21° S 04:14:59 10° ESE visible
05 Jul ? 02:21:42 11° SE 02:21:42 11° SE 02:22:07 10° SE visible
05 Jul ? 03:56:53 13° SW 03:59:19 22° S 04:02:28 10° ESE visible
06 Jul ? 02:09:31 11° SE 02:09:31 11° SE 02:09:51 10° SE visible
06 Jul ? 03:44:42 16° SW 03:46:45 22° S 03:49:56 10° SE visible
07 Jul ? 01:57:23 10° SE 01:57:23 10° SE 01:57:30 10° ESE visible
07 Jul ? 03:32:35 18° SSW 03:34:11 23° S 03:37:22 10° SE visible
08 Jul ? 03:20:35 20° SSW 03:21:36 23° S 03:24:48 10° SE visible
09 Jul ? 03:08:49 22° S 03:09:01 22° S 03:12:11 10° SE visible
10 Jul ? 02:57:33 19° SSE 02:57:33 19° SSE 02:59:34 10° SE visible
10 Jul ? 04:33:48 10° SW 04:35:32 12° SSW 04:37:16 10° S visible
11 Jul ? 04:22:33 11° SSW 04:22:54 11° SSW 04:24:01 10° S visible
11 Jul ? 23:11:20 10° S 23:12:56 12° SSE 23:13:19 12° SSE visible
